{"data":{"norad_id":64112,"epoch":"2026-09-20T10:46:44.129568Z","epoch_age_seconds":144743,"freshness":"FRESH","line1":"1 64112U 25110S   26263.44912187  .00007410  00000+0  25024-3 0  9995","line2":"2 64112  53.1586 200.5180 0000982  58.7519 301.3578 15.31707609 75721","mean_motion":15.31707609,"eccentricity":9.82e-5,"inclination_deg":53.1586,"raan_deg":200.518,"arg_perigee_deg":58.7519,"mean_anomaly_deg":301.3578,"bstar":0.00025024,"rev_number":7572,"period_min":94.012720935697,"perigee_km":470.04475579292,"apogee_km":471.38987078005,"semimajor_km":6848.8543132865,"source":"CELESTRAK","updated_at":"2026-09-21T09:00:35.229824Z"}}